Погода в Байонне

Франция     43°29′29″N   1°28′26″W
темп.,
°C
ветер,
м/с
пор.,
м/с
влажн.,
%
обл.,
%
осадки,
мм/ч
давл.,
гПа
погр.,
м
25 февраля, чт
чт2501:00+12юз128020 0.0 102722
04:00+11ю348132 0.0 102789
07:00+10ю357336 0.0 1027118
10:00+12ю25677 0.0 1028197
13:00+16зсз235751 0.0 1029407
16:00+14сз247283 0.0 1029233
19:00+12зюз128291 0.0 102922
22:00+11зюз2386100 0.0 103152
26 февраля, пт
пт2601:00+10юз3491100 0.0 1032102
04:00+10юз3593100 0.0 1032143
07:00+10юз3494100 0.0 1032130
10:00+12зюз3486100 0.0 1032293
13:00+13з3284100 0.0 1032388
16:00+13зсз238283 0.0 1031404
19:00+11зсз239473 0.0 1031122
22:00+11зюз359396 0.0 1032181
27 февраля, сб
сб2701:00+11зсз119394 0.0 103369
04:00+10св3587100 0.0 1032333
07:00+7всв359481 0.0 1032186
10:00+8всв238623 0.0 1032315
13:00+11ссз337417 0.0 1031568
16:00+11зсз347938 0.0 1029383
19:00+11зюз358151 0.0 1028281
22:00+10юз358838 0.0 1029177
28 февраля, вс
вс2801:00+8ю119219 0.0 102855
04:00+7юв11917 0.0 102645
07:00+7в128941 0.0 102685
10:00+9всв118285 0.0 1025197
13:00+11с217570 0.0 1025466
16:00+12св247588 0.0 1022462
19:00+11всв368471 0.0 1022184
22:00+10вюв478880 0.0 1022217
1 марта, пн
пн101:00+9юв348673 0.0 102288
04:00+8юв33830 0.0 102167
07:00+8юв238029 0.0 102162
10:00+11юв237055 0.0 1021160
13:00+17ю265328 0.0 1021729
16:00+18вюв14538 0.0 1019830
19:00+14вюв237212 0.0 102029
22:00+12ююв337388 0.0 102242